Погода в Кореневщине

Россия / Липецкая область     52°44′03″N   39°50′32″E
темп.,
°C
ветер,
м/с
пор.,
м/с
влажн.,
%
обл.,
%
осадки,
мм/ч
давл.,
гПа
погр.,
м
9 декабря, чт
чт900:00+2в2596100 0.1 1016161
03:00+2в2297100 0.1 101555
06:00+2всв2498100 0.0 1016132
09:00+2всв2297100 0.0 101754
12:00+3св2494100 0.0 1018180
15:00+3св3595100 0.0 1019221
18:00+2ссв4797100 0.0 1021296
21:000ссв4895100 0.0 1023350
10 декабря, пт
пт1000:000св4791100 0.0 1025346
03:000св4689100 0.0 1026323
06:00−1св4688100 0.0 1027307
09:00−1всв4785100 0.0 1028333
12:000всв4580100 0.0 1029456
15:00+1всв3473100 0.0 1029758
18:00−2всв378716 0.0 1031269
21:00−2всв37867 0.0 1031305
11 декабря, сб
сб1100:00−3всв36845 0.0 1032275
03:00−3в36815 0.0 1032287
06:00−3в48745 0.0 1032349
09:00−3в49625 0.0 1032351
12:00−1вюв57525 0.0 1032456
15:00−1в48555 0.0 1032449
18:00−2вюв495760 0.0 1033329
21:00−2вюв41056100 0.0 1033333
12 декабря, вс
вс1200:00−2вюв41055100 0.0 1034342
03:00−3вюв485590 0.0 1035272
06:00−3вюв49556 0.0 1035268
09:00−3вюв495431 0.0 1036277
12:00−1юв485121 0.0 1036363
15:00−1вюв48534 0.0 1035380
18:00−2вюв510575 0.0 1035320
21:00−3юв41058100 0.0 1035349
13 декабря, пн
пн1300:00−3юв51156100 0.0 1035362
03:00−3юв41155100 0.0 1034352
06:00−3юв51156100 0.0 1034358
09:00−3юв51351100 0.0 1033396
12:00−2юв61342100 0.0 1033445
15:00−1юв51238100 0.0 1031473
18:00−1юв51339100 0.0 1031459
21:00−2юв51241100 0.0 1031433